Content
SEND FEEDBACK

Daily
Averages
Monthly
Summary
Ghana

ACCRA, GHANA


Home > Africa > Ghana
Elevation: 226 feet     Latitude: 05 36N     Longitude: 000 10W

WEATHER
 
SELECT A DAY
Number of Records: 94,497;   Date Range: 7/1/96 - 12/17/14
 
SHARE

PRINT THIS DATA

[ ← Previous Day ]
WEATHER ALMANAC - MARCH 14, 2013
[ Next Day → ]
[ °C ]   °F
Weather ElementAverageHighLow
Temperature85 °F91.4 °F (12:00 pm)78.8 °F (4:51 am)
Dewpoint76.3 °F78.8 °F (12:53 am)73.4 °F (2:00 pm)
Humidity76 %94 % (4:51 am)55 % (2:00 pm)
Barometer29.78 in29.86 in (10:00 am)29.56 in (1:52 am)
Wind Speed12 mph17.3 mph (3:00 pm)
Weather ElementAverage
Visibility6.8 mi
Wind DirectionWSW (231.5 °)

Weather ElementTotal
Precipitation---
Cooling Degree Days20.1 (Base 65)
Growing Degree Days35.1 (Base 50)
Averaged from 26 records on March 14, 2013
WEATHER CONDITIONS BREAKOUT
WIND DIRECTION BREAKOUT
WEATHER BY HOUR - MARCH 14, 2013
[ °C ]   °F
Local TimeTemperatureDewpointHumidityBarometerVisibilityWind DirectionWind SpeedGust SpeedPrecipitationEventsConditions
12:53 AM82.4 °F78.8 °F89 %29.83 in6.2 miSW (230°)8.1 mphPartly Cloudy
1:52 AM82.4 °F77.0 °F84 %29.56 in6.2 miWSW (250°)6.9 mphPartly Cloudy
2:56 AM80.6 °F77.0 °F89 %29.77 in6.2 miWSW (250°)6.9 mphScattered Clouds
3:51 AM80.6 °F77.0 °F89 %29.77 in6.2 miWest (270°)8.1 mphScattered Clouds
4:51 AM78.8 °F77.0 °F94 %29.77 inWest (270°)8.1 mphClear
5:51 AM78.8 °F77.0 °F94 %29.77 inWest (260°)10.4 mphClear
6:51 AM78.8 °F77.0 °F94 %29.80 in6.2 miWest (270°)12.7 mphPartly Cloudy
8:00 AM82.4 °F77.0 °F84 %29.83 in6.2 miWest (260°)12.7 mphPartly Cloudy
9:00 AM86.0 °F77.0 °F74 %29.83 in6.2 miWSW (250°)12.7 mphPartly Cloudy
9:30 AM86.0 °F77.0 °F74 %29.83 in6.2 miWest (260°)10.4 mphPartly Cloudy
10:00 AM87.8 °F75.2 °F66 %29.86 in6.2 miWest (260°)10.4 mphScattered Clouds
11:00 AM89.6 °F75.2 °F62 %29.83 in6.2 miWSW (240°)11.5 mphPartly Cloudy
12:00 PM91.4 °F75.2 °F59 %29.80 in6.2 miSouth (190°)12.7 mphMostly Cloudy
1:00 PM91.4 °F75.2 °F59 %29.77 inSSW (200°)13.8 mphClear
2:00 PM91.4 °F73.4 °F55 %29.74 inSouth (190°)15.0 mphClear
3:00 PM89.6 °F73.4 °F59 %29.74 inSSW (210°)17.3 mphClear
4:00 PM89.6 °F75.2 °F62 %29.71 inSSW (200°)17.3 mphClear
5:00 PM87.8 °F75.2 °F66 %29.71 inSSW (200°)17.3 mphClear
6:00 PM86.0 °F75.2 °F70 %29.71 in6.2 miSSW (210°)17.3 mphPartly Cloudy
7:00 PM84.2 °F77.0 °F79 %29.74 in6.2 miSW (220°)13.8 mphPartly Cloudy
7:53 PM84.2 °F77.0 °F79 %29.77 inSW (220°)12.7 mphClear
8:52 PM84.2 °F77.0 °F79 %29.80 inSW (230°)15.0 mphClear
9:00 PM84.0 °F77.0 °F75 %29.81 in14.0 miSW (220°)9.2 mphScattered Clouds
9:53 PM84.2 °F77.0 °F79 %29.80 inSSW (210°)11.5 mphClear
11:10 PM84.2 °F77.0 °F79 %29.80 inSW (220°)9.2 mphClear
11:51 PM82.4 °F77.0 °F84 %29.80 inSW (230°)10.4 mphClear
Hourly data recorded from DGAA, located miles away from Accra, Ghana







STORIES FROM OUR PARTNERS